Regional Weather Roundup
Issued by NWS Northern Indiana

Home | Current Version | Previous Version | Text Only | Print | Product List | Glossary On
Versions: 1 2 3 4 5 6 7 8 9 10 11 12 13 14 15 16 17 18 19 20 21 22 23 24 25 26 27 28 29 30 31 32 33 34 35 36 37 38 39 40 41 42 43 44 45 46 47 48 49 50
000
ASUS43 KIWX 012110
RWRIWX

KIWX WEATHER ROUNDUP
NATIONAL WEATHER SERVICE NORTHERN INDIANA
500 PM EDT SUN MAY 01 2016

NOTE: "FAIR" INDICATES FEW OR NO CLOUDS BELOW 12,000 FEET WITH NO
SIGNIFICANT WEATHER AND/OR OBSTRUCTIONS TO VISIBILITY.

* THESE STATIONS ARE NOT UNDER NWS QUALITY CONTROL. THEY ALSO MAY NOT
  REPORT WEATHER SUCH AS PRECIPITATION OR FOG.

INZ001>027-012200-
NORTHERN INDIANA

CITY           SKY/WX    TMP DP  RH WIND       PRES   REMARKS
GARY*          CLOUDY    50  50 100 N8        29.99F FOG
VALPARAISO     CLOUDY    52  47  83 N10       29.97F
MICHIGAN CITY* CLOUDY    50  50 100 N6        29.98F
LAPORTE*       CLOUDY    55  54  97 N9        29.97F
KNOX*          CLOUDY    55  46  71 NE6       29.95F
SOUTH BEND     CLOUDY    55  49  80 E3        29.97F
ELKHART*       CLOUDY    55  54  94 MISG      29.97F
GOSHEN         CLOUDY    56  51  84 N7        29.95F
MONTICELLO*    CLOUDY    61  54  78 N6        29.92F
LOGANSPORT*    CLOUDY    61  57  88 N6        29.93F
ROCHESTER*     CLOUDY    59  55  88 N7        29.94F
WARSAW*        CLOUDY    55  52  88 NE5       29.95F
ANGOLA*        CLOUDY    54  52  94 N6        29.96F
FORT WAYNE     CLOUDY    62  56  80 N7        29.94F
HUNTINGTON*    CLOUDY    61  58  88 N9        29.92F
PERU/GRISSOM   PTSUNNY   65  61  85 NW7       29.90F
MARION*        PTSUNNY   71  58  64 NW9       29.91F

$$
INZ028>050-012200-
CENTRAL INDIANA

CITY           SKY/WX    TMP DP  RH WIND       PRES   REMARKS
LAFAYETTE      PTSUNNY   67  59  75 NW6       29.91F
KOKOMO*        PTSUNNY   70  61  73 N8        29.91F
MUNCIE*        MOSUNNY   74  55  51 W9G16     29.90F
INDIANAPOLIS   PTSUNNY   74  55  51 W9        29.88F

$$
MIZ043>046-050>051-056>058-064>065-071>073-077>080-012200-
SOUTHWEST LOWER MICHIGAN

CITY           SKY/WX    TMP DP  RH WIND       PRES   REMARKS
BATTLE CREEK   CLOUDY    50  46  86 NE9       30.01R
BENTON HARBOR  CLOUDY    54  47  77 NE7       29.98F
COLDWATER*     CLOUDY    54  50  87 N8        29.98S
HILLSDALE*     CLOUDY    52  51  96 NE6       29.98R
HOLLAND        CLOUDY    54  47  77 E9        30.01S
GRAND RAPIDS   CLOUDY    52  46  80 E13       30.02S
KALAMAZOO      CLOUDY    52  46  80 E6        30.00S
STURGIS*       CLOUDY    54  50  87 NE7       29.96F
THREE RIVERS*  CLOUDY    53  49  88 NE7       29.98S

$$
OHZ001>008-015>018-024>025-012200-
NORTHWEST OHIO

CITY           SKY/WX    TMP DP  RH WIND       PRES   REMARKS
WAUSEON*         N/A     55 N/A N/A NE9       29.97S
DEFIANCE       CLOUDY    57  51  80 N9        29.96S
FINDLAY        CLOUDY    60  52  74 N14       29.93F
TOLEDO EXPRESS CLOUDY    56  50  80 N6        29.96S
TOLEDO METCALF CLOUDY    55  49  80 NE6       29.98S
LIMA           SUNNY     69  62  78 N10       29.91F

$$
AND FOR LAKE MICHIGAN COASTAL AND OPEN LAKE BUOY OBSERVATIONS

STATION/POSITION TEMP    WIND        PRES    VSBY  WAVE
                 AIR SEA DIR/SP/G                  HT/PER
                 (F)     (DEG/KT/KT) (MB)    (MI)  (FT/S)
CALUMET HARBOR    45     350/  8/  9 1015.4F
MICHIGAN CITY     45     350/  9/ 10   N/A
BURNS HARBOR      45      30/  9/ 11 1015.9F
SAINT JOSEPH      49     360/  3/  5 1015.6F
SOUTH LAKE BUOY   42 40   20/ 10/ 10 1016.4R         2/ 5
4 MI NW BRIDGMAN  48 48                N/A           2/ 5

$$
&&



USA.gov is the U.S. government's official web portal to all federal, state and local government web resources and services.